FW7093 Weather Reports


time (UTC)temp
C
wind
direction
speed
KPH
gust
KPH
rain 1hr
cm
rain 24hr
cm
rain mn
cm
humidity
%
barometer
mb
20260505052046 16 174 1.6 9.7 0.00 0.00 0.00 68 1009.9
20260505051554 15 0 0.0 8.0 0.00 0.00 0.00 68 1010.0
20260505051044 15 0 3.2 12.9 0.00 0.00 0.00 68 1010.1
20260505050544 15 162 0.0 12.9 0.00 0.00 0.00 68 1010.2
20260505041600 15 170 3.2 14.5 0.00 0.00 0.00 66 1010.0
20260505041044 15 232 1.6 12.9 0.00 0.00 0.00 66 1010.0
20260505040546 15 165 1.6 12.9 0.00 0.00 0.00 65 1010.1
20260505040050 15 0 0.0 12.9 0.00 0.00 0.00 65 1010.1
20260505035545 15 241 1.6 6.4 0.00 0.00 0.00 65 1010.1
20260505035045 15 147 1.6 8.0 0.00 0.00 0.00 65 1010.0
20260505034550 15 0 1.6 8.0 0.00 0.00 0.00 66 1010.1
20260505034044 15 0 1.6 6.4 0.00 0.00 0.00 65 1010.1
20260505033545 15 129 1.6 6.4 0.00 0.00 0.00 65 1010.0
20260505033050 15 0 0.0 6.4 0.00 0.00 0.00 65 1010.1
20260505032544 15 195 0.0 6.4 0.00 0.00 0.00 65 1010.1
20260505032043 15 192 0.0 4.8 0.00 0.00 0.00 64 1010.0
20260505031607 15 0 0.0 6.4 0.00 0.00 0.00 64 1010.0
20260505031045 15 0 0.0 12.9 0.00 0.00 0.00 62 1010.1
20260505030543 15 174 0.0 12.9 0.00 0.00 0.00 61 1009.9
20260505030055 15 155 1.6 11.3 0.00 0.00 0.00 60 1009.9
20260505025546 16 178 1.6 11.3 0.00 0.00 0.00 58 1010.1
20260505025044 15 149 3.2 9.7 0.00 0.00 0.00 59 1010.0
20260505024550 15 0 1.6 9.7 0.00 0.00 0.00 60 1010.2
20260505024043 15 0 0.0 8.0 0.00 0.00 0.00 60 1010.1
20260505023547 15 197 1.6 9.7 0.00 0.00 0.00 60 1010.1
20260505023106 15 149 1.6 9.7 0.00 0.00 0.00 60 1010.2
20260505022543 15 0 1.6 11.3 0.00 0.00 0.00 61 1010.2
20260505022045 14 0 0.0 11.3 0.00 0.00 0.00 61 1010.3
20260505021547 14 0 1.6 11.3 0.00 0.00 0.00 60 1010.3
20260505021044 15 0 1.6 9.7 0.00 0.00 0.00 59 1010.2
20260505020547 15 149 1.6 9.7 0.00 0.00 0.00 59 1010.1
20260505020054 14 0 1.6 6.4 0.00 0.00 0.00 59 1010.1
20260505015544 15 141 0.0 4.8 0.00 0.00 0.00 58 1010.1
20260505015044 15 124 0.0 9.7 0.00 0.00 0.00 56 1010.1
20260505014601 15 0 0.0 9.7 0.00 0.00 0.00 55 1010.1
20260505014045 15 145 0.0 8.0 0.00 0.00 0.00 56 1010.0
20260505013543 15 164 0.0 6.4 0.00 0.00 0.00 55 1010.1
20260505013105 15 140 0.0 6.4 0.00 0.00 0.00 54 1010.0
20260505012546 15 159 0.0 6.4 0.00 0.00 0.00 54 1010.0
20260505012044 16 0 0.0 6.4 0.00 0.00 0.00 52 1009.9
20260505011552 16 122 0.0 8.0 0.00 0.00 0.00 51 1010.0
20260505011045 17 0 1.6 8.0 0.00 0.00 0.00 49 1009.9
20260505010545 17 162 0.0 4.8 0.00 0.00 0.00 48 1009.7
20260505010051 17 161 0.0 11.3 0.00 0.00 0.00 46 1009.8
20260505005546 17 168 0.0 12.9 0.00 0.00 0.00 46 1009.8
20260505005043 17 202 1.6 12.9 0.00 0.00 0.00 46 1009.6
20260505004554 17 0 0.0 11.3 0.00 0.00 0.00 45 1009.6
20260505004042 18 135 1.6 6.4 0.00 0.00 0.00 45 1009.6
20260505003544 18 155 0.0 12.9 0.00 0.00 0.00 44 1009.6
20260505003050 18 0 1.6 12.9 0.00 0.00 0.00 43 1009.5
20260505002543 18 178 4.8 12.9 0.00 0.00 0.00 44 1009.6
20260505002044 18 0 1.6 12.9 0.00 0.00 0.00 44 1009.5
20260505001554 18 242 4.8 12.9 0.00 0.00 0.00 44 1009.5
20260505001046 19 201 3.2 17.7 0.00 0.00 0.00 43 1009.6
20260505000543 19 196 3.2 24.1 0.00 0.00 0.00 43 1009.7
20260505000106 19 150 6.4 24.1 0.00 0.00 0.00 43 1009.7
20260504235544 20 162 6.4 17.7 0.00 0.00 0.00 42 1009.6
20260504235045 20 175 6.4 16.1 0.00 0.00 0.00 42 1009.7
20260504234550 20 193 6.4 14.5 0.00 0.00 0.00 42 1009.5
20260504234043 20 0 3.2 12.9 0.00 0.00 0.00 40 1009.6
20260504233543 20 181 3.2 14.5 0.00 0.00 0.00 40 1009.6
20260504233044 21 174 4.8 17.7 0.00 0.00 0.00 38 1009.5
20260504232544 21 163 3.2 17.7 0.00 0.00 0.00 39 1009.5
20260504232043 21 0 4.8 17.7 0.00 0.00 0.00 37 1009.4
20260504231549 21 162 4.8 14.5 0.00 0.00 0.00 37 1009.4
20260504231043 21 173 3.2 11.3 0.00 0.00 0.00 38 1009.5
20260504230544 21 199 3.2 16.1 0.00 0.00 0.00 38 1009.5
20260504230104 22 166 8.0 16.1 0.00 0.00 0.00 36 1009.4
20260504225546 22 109 3.2 16.1 0.00 0.00 0.00 35 1009.4
20260504225043 22 187 3.2 16.1 0.00 0.00 0.00 36 1009.4
20260504224552 22 291 1.6 11.3 0.00 0.00 0.00 37 1009.4
20260504224043 22 161 3.2 19.3 0.00 0.00 0.00 36 1009.3
20260504223543 22 196 3.2 19.3 0.00 0.00 0.00 36 1009.3
20260504223048 22 0 3.2 19.3 0.00 0.00 0.00 36 1009.4
20260504222543 22 228 4.8 20.9 0.00 0.00 0.00 37 1009.4
20260504222043 22 182 3.2 20.9 0.00 0.00 0.00 36 1009.3
20260504221600 22 156 3.2 20.9 0.00 0.00 0.00 35 1009.4
20260504221046 22 174 4.8 24.1 0.00 0.00 0.00 34 1009.3
20260504220544 22 165 3.2 24.1 0.00 0.00 0.00 36 1009.4
20260504220055 22 209 8.0 24.1 0.00 0.00 0.00 34 1009.5
20260504215547 22 222 6.4 17.7 0.00 0.00 0.00 34 1009.5
20260504215046 22 306 8.0 25.7 0.00 0.00 0.00 39 1009.5
20260504214550 22 180 11.3 25.7 0.00 0.00 0.00 34 1009.6
20260504214043 23 113 1.6 14.5 0.00 0.00 0.00 37 1009.5
20260504213545 23 170 3.2 24.1 0.00 0.00 0.00 35 1009.6
20260504213047 23 291 6.4 25.7 0.00 0.00 0.00 35 1009.6
20260504212545 23 170 6.4 25.7 0.00 0.00 0.00 34 1009.7
20260504212046 23 167 6.4 19.3 0.00 0.00 0.00 35 1009.7
20260504211548 23 135 4.8 16.1 0.00 0.00 0.00 36 1009.7
20260504211042 23 269 4.8 17.7 0.00 0.00 0.00 37 1009.6
20260504210544 23 274 4.8 19.3 0.00 0.00 0.00 37 1009.7
20260504210048 23 296 6.4 19.3 0.00 0.00 0.00 35 1009.7
20260504205544 23 208 6.4 20.9 0.00 0.00 0.00 33 1009.7
20260504205044 23 259 3.2 20.9 0.00 0.00 0.00 36 1009.6
20260504204555 22 169 9.7 25.7 0.00 0.00 0.00 35 1009.7
20260504204043 23 282 3.2 25.7 0.00 0.00 0.00 37 1009.7
20260504203546 22 170 11.3 24.1 0.00 0.00 0.00 36 1009.7
20260504203101 22 172 8.0 20.9 0.00 0.00 0.00 39 1009.7
20260504202543 23 282 3.2 19.3 0.00 0.00 0.00 33 1009.8
20260504202044 23 301 4.8 19.3 0.00 0.00 0.00 35 1009.9
20260504201556 22 217 6.4 19.3 0.00 0.00 0.00 34 1010.1
20260504201043 22 144 8.0 19.3 0.00 0.00 0.00 41 1010.1
20260504200544 22 178 6.4 19.3 0.00 0.00 0.00 34 1010.2
20260504200057 23 227 8.0 22.5 0.00 0.00 0.00 37 1010.1
20260504195543 22 269 4.8 27.4 0.00 0.00 0.00 36 1010.2
20260504195044 22 226 8.0 27.4 0.00 0.00 0.00 36 1010.4
20260504194556 22 165 6.4 17.7 0.00 0.00 0.00 38 1010.4
20260504194044 22 286 3.2 19.3 0.00 0.00 0.00 36 1010.3
20260504193543 22 285 8.0 25.7 0.00 0.00 0.00 38 1010.5
20260504193105 22 305 14.5 25.7 0.00 0.00 0.00 34 1010.6
20260504192543 23 259 8.0 22.5 0.00 0.00 0.00 35 1010.6
20260504192043 22 275 8.0 22.5 0.00 0.00 0.00 39 1010.8
20260504191605 22 286 4.8 22.5 0.00 0.00 0.00 37 1010.7
20260504191043 22 113 11.3 20.9 0.00 0.00 0.00 34 1010.9
20260504190544 22 247 8.0 19.3 0.00 0.00 0.00 35 1011.0
20260504190121 22 321 6.4 17.7 0.00 0.00 0.00 40 1011.2
20260504185544 22 242 6.4 17.7 0.00 0.00 0.00 37 1011.0
20260504185043 22 143 4.8 20.9 0.00 0.00 0.00 37 1011.1
20260504184555 22 265 3.2 20.9 0.00 0.00 0.00 38 1011.2
20260504184046 22 265 6.4 20.9 0.00 0.00 0.00 33 1011.3
20260504183543 22 252 8.0 22.5 0.00 0.00 0.00 37 1011.2
20260504183105 22 263 9.7 22.5 0.00 0.00 0.00 34 1011.3
20260504182544 22 20 9.7 22.5 0.00 0.00 0.00 35 1011.6
20260504182045 22 258 12.9 22.5 0.00 0.00 0.00 34 1011.7
20260504181602 22 232 8.0 19.3 0.00 0.00 0.00 40 1011.7
20260504181043 22 311 4.8 22.5 0.00 0.00 0.00 36 1011.7
20260504180543 22 170 8.0 22.5 0.00 0.00 0.00 40 1011.8
20260504180054 21 240 4.8 22.5 0.00 0.00 0.00 38 1011.7
20260504175547 21 227 1.6 14.5 0.00 0.00 0.00 43 1011.7
20260504175043 21 266 3.2 14.5 0.00 0.00 0.00 35 1011.7
20260504174552 21 238 4.8 16.1 0.00 0.00 0.00 41 1011.8
20260504174043 21 232 4.8 17.7 0.00 0.00 0.00 43 1011.9
20260504173544 21 301 6.4 17.7 0.00 0.00 0.00 41 1012.0
20260504173052 21 253 6.4 19.3 0.00 0.00 0.00 41 1012.1
20260504172543 21 309 4.8 19.3 0.00 0.00 0.00 38 1012.2
20260504172048 21 291 6.4 19.3 0.00 0.00 0.00 38 1012.1
20260504171556 21 282 1.6 20.9 0.00 0.00 0.00 40 1012.2
20260504171048 21 183 4.8 24.1 0.00 0.00 0.00 40 1012.4
20260504170547 21 301 8.0 24.1 0.00 0.00 0.00 37 1012.5
20260504151048 19 261 1.6 17.7 0.00 0.00 0.00 43 1013.5
20260504150548 18 357 4.8 17.7 0.00 0.00 0.00 44 1013.7
20260504141043 16 320 6.4 16.1 0.00 0.00 0.00 52 1013.9
20260504140545 16 149 3.2 17.7 0.00 0.00 0.00 51 1013.8
20260504130544 15 0 6.4 20.9 0.00 0.00 0.00 59 1014.0
20260504110543 6 0 0.0 3.2 0.00 0.00 0.00 91 1014.5
20260504100543 3 0 0.0 0.0 0.00 0.00 0.00 91 1014.6
20260504100103 3 0 0.0 0.0 0.00 0.00 0.00 91 1014.7
20260504081600 4 0 0.0 0.0 0.00 0.00 0.00 86 1015.0
20260504081042 4 0 0.0 0.0 0.00 0.00 0.00 86 1014.9
20260504080547 4 0 0.0 0.0 0.00 0.00 0.00 86 1014.8